Memphis, TN

4:46 PM CDT on July 20, 2017 (GMT -0500)
Memphis International

Weather History for KMEM - April, 2014

Change the Weather History Date:

Monday, April 7, 2014

  Actual Average Record
Temperature  
Mean Temperature 49 °F 60 °F  
Max Temperature 55 °F 71 °F 89 °F (1893)
Min Temperature 43 °F 50 °F 30 °F (2007)
Degree Days  
Heating Degree Days 16 6  
Month to date heating degree days 46 49  
Since 1 July heating degree days 3347 2857  
Cooling Degree Days 0 2  
Month to date cooling degree days 18 12  
Year to date cooling degree days 20 32  
Moisture  
Dew Point 46 °F    
Average Humidity 81    
Maximum Humidity 96    
Minimum Humidity 66    
Precipitation  
Precipitation 0.18 in 0.18 in 2.87 in (1921)
Month to date precipitation 1.33 1.21  
Year to date precipitation 16.83 14.74  
Snow  
Snow 0.00 in 0.00 in - ()
Month to date snowfall 0.0 0.0  
Since 1 July snowfall 0.8 3.8  
Snow Depth 0.00 in    
Sea Level Pressure  
Sea Level Pressure 29.70 in    
Wind  
Wind Speed 9 mph (NW)    
Max Wind Speed 21 mph    
Max Gust Speed 26 mph    
Visibility 7 miles    
Events Rain , Thunderstorm    
T = Trace of Precipitation, MM = Missing Value Source: NWS Daily Summary

Daily Weather History Graph

Daily Weather History Graph

Search for Another Location

Airport or City:

Trip Planner

Search our weather history database for the weather conditions in past years. The results will help you decide how hot, cold, wet, or windy it might be!

Date:

Astronomy

Apr. 07, 2014 Rise Set
Actual Time 6:38 AM CDT 7:26 PM CDT
Civil Twilight 6:12 AM CDT 7:51 PM CDT
Nautical Twilight 5:42 AM CDT 8:22 PM CDT
Astronomical Twilight 5:11 AM CDT 8:53 PM CDT
Moon 12:40 PM CDT (4/7) 1:57 AM CDT (4/7)
Length of Visible Light 13h 39m
Length of Day
12h 47m
First Quarter, 53% of the Moon is Illuminated
Apr 7
First Quarter
Apr 15
Full
Apr 22
Last Quarter
Apr 29
New
May 6
First Quarter

Hourly Weather History & Observations

Time (CDT) Temp. Windchill Dew Point Humidity Pressure Visibility Wind Dir Wind Speed Gust Speed Precip Events Conditions
12:54 AM 51.1 °F - 48.0 °F 89% 29.70 in 10.0 mi NE 8.1 mph - 0.00 in   Overcast
1:54 AM 51.1 °F - 48.0 °F 89% 29.66 in 10.0 mi NNE 10.4 mph - N/A   Overcast
2:48 AM 51.8 °F - 48.2 °F 88% 29.62 in 2.0 mi ENE 10.4 mph - 0.00 in   Overcast
2:54 AM 51.1 °F - 48.9 °F 92% 29.60 in 2.0 mi ENE 11.5 mph - 0.00 in   Light Drizzle
3:25 AM 51.8 °F - 50.0 °F 94% 29.58 in 2.0 mi East 10.4 mph - 0.00 in   Light Drizzle
3:42 AM 51.8 °F - 50.0 °F 94% 29.60 in 1.0 mi East 5.8 mph - 0.00 in   Light Drizzle
3:54 AM 52.0 °F - 50.0 °F 93% 29.60 in 1.0 mi East 4.6 mph - 0.01 in   Light Drizzle
4:54 AM 52.0 °F - 50.0 °F 93% 29.57 in 1.0 mi North 5.8 mph - 0.01 in   Light Drizzle
5:02 AM 51.8 °F - 50.0 °F 94% 29.59 in 1.0 mi NW 5.8 mph - 0.00 in Rain , Thunderstorm Light Thunderstorms and Rain
5:20 AM 51.8 °F - 51.8 °F 100% 29.55 in 1.0 mi Calm Calm - 0.10 in Rain Light Rain
5:54 AM 52.0 °F - 50.0 °F 93% 29.55 in 1.0 mi Calm Calm - 0.11 in Rain Light Rain
6:54 AM 52.0 °F - 51.1 °F 97% 29.59 in 1.0 mi West 11.5 mph 19.6 mph 0.04 in Rain Light Rain
7:21 AM 51.8 °F - 48.2 °F 88% 29.60 in 1.0 mi WNW 17.3 mph 23.0 mph 0.01 in Rain Light Rain
7:35 AM 51.8 °F - 48.2 °F 88% 29.60 in 3.0 mi WNW 17.3 mph - 0.01 in   Overcast
7:54 AM 51.1 °F - 48.0 °F 89% 29.61 in 3.0 mi WNW 13.8 mph - 0.01 in   Overcast
8:54 AM 51.1 °F - 48.0 °F 89% 29.61 in 10.0 mi WNW 13.8 mph - N/A   Overcast
9:54 AM 50.0 °F - 46.0 °F 86% 29.62 in 10.0 mi WNW 13.8 mph - N/A   Overcast
10:46 AM 50.0 °F - 44.6 °F 82% 29.66 in 10.0 mi WNW 16.1 mph 26.5 mph N/A   Overcast
10:54 AM 50.0 °F - 45.0 °F 83% 29.66 in 10.0 mi WNW 17.3 mph 24.2 mph N/A   Overcast
11:54 AM 50.0 °F - 44.1 °F 80% 29.68 in 10.0 mi WNW 15.0 mph 26.5 mph N/A   Overcast
12:54 PM 50.0 °F - 43.0 °F 77% 29.71 in 10.0 mi WNW 16.1 mph 26.5 mph N/A   Overcast
1:18 PM 50.0 °F - 42.8 °F 76% 29.71 in 10.0 mi WNW 19.6 mph 24.2 mph N/A   Overcast
1:54 PM 50.0 °F - 43.0 °F 77% 29.73 in 10.0 mi WNW 13.8 mph 23.0 mph N/A   Overcast
2:54 PM 50.0 °F - 42.8 °F 76% 29.75 in 10.0 mi NW 15.0 mph 20.7 mph N/A   Overcast
3:54 PM 51.1 °F - 43.0 °F 74% 29.75 in 10.0 mi NW 13.8 mph - N/A   Overcast
4:54 PM 52.0 °F - 43.0 °F 71% 29.78 in 10.0 mi NW 9.2 mph - N/A   Overcast
5:54 PM 54.0 °F - 43.0 °F 66% 29.80 in 10.0 mi NNW 6.9 mph - N/A   Mostly Cloudy
6:01 PM 55.4 °F - 42.8 °F 63% 29.80 in 10.0 mi NNW 6.9 mph - N/A   Overcast
6:54 PM 52.0 °F - 42.1 °F 69% 29.82 in 10.0 mi NW 8.1 mph - N/A   Mostly Cloudy
7:01 PM 53.6 °F - 42.8 °F 67% 29.82 in 10.0 mi WNW 5.8 mph - N/A   Scattered Clouds
7:54 PM 51.1 °F - 41.0 °F 68% 29.84 in 10.0 mi Calm Calm - N/A   Partly Cloudy
8:54 PM 46.9 °F - 41.0 °F 80% 29.87 in 10.0 mi South 5.8 mph - N/A   Partly Cloudy
9:54 PM 46.0 °F - 39.9 °F 79% 29.88 in 10.0 mi Calm Calm - N/A   Partly Cloudy
10:54 PM 45.0 °F 41.8 °F 41.0 °F 86% 29.89 in 10.0 mi SSW 5.8 mph - N/A   Partly Cloudy
11:54 PM 46.0 °F 43.1 °F 41.0 °F 83% 29.88 in 10.0 mi South 5.8 mph - N/A   Scattered Clouds